Regional Weather Roundup
Issued by NWS

Home | Current Version | Previous Version | Graphics & Text | Print | Product List | Glossary On
Versions: 1 2 3 4 5 6 7 8 9 10 11 12 13 14 15 16 17 18 19 20 21 22 23 24 25 26 27 28 29 30 31 32 33 34 35 36 37 38 39 40 41 42 43 44 45 46 47 48 49 50
013
ASUS45 KBOI 270410
RWRID

IDAHO REGIONAL WEATHER ROUNDUP
NATIONAL WEATHER SERVICE BOISE ID
1000 PM MDT WED APR 26 2017

NOTE: "FAIR" INDICATES FEW OR NO CLOUDS BELOW 12000 FEET
WITH NO SIGNIFICANT WEATHER AND/OR OBSTRUCTIONS TO VISIBILITY

IDZ012-014-270500-
SOUTHWEST IDAHO


CITY           SKY/WX    TMP DP  RH WIND       PRES   REMARKS
BOISE          CLOUDY    46  43  89 NW9       29.80R
CALDWELL       CLEAR     46  39  76 W14       29.82R
MOUNTAIN HOME  MOCLDY    46  46 100 NW16      29.77R
$$

IDZ016-017-270500-
SOUTHCENTRAL IDAHO


CITY           SKY/WX    TMP DP  RH WIND       PRES   REMARKS
BURLEY         CLOUDY    46  38  73 W15       29.71R
JEROME         LGT RAIN  43  41  93 SW14      29.73R
TWIN FALLS     RAIN      41  40  96 W13       29.76R
$$

IDZ019>023-270500-
SOUTHEAST IDAHO


CITY           SKY/WX    TMP DP  RH WIND       PRES   REMARKS
IDAHO FALLS    CLOUDY    41  39  93 S17       29.67S
POCATELLO      CLOUDY    44  40  85 SW15      29.69S
REXBURG        CLOUDY    40  38  93 S15       29.65S WCI  32
$$

IDZ006-010-011-018-031-032-270500-
CENTRAL IDAHO MOUNTAINS


CITY           SKY/WX    TMP DP  RH WIND       PRES   REMARKS
MCCALL         MOCLDY    36  32  85 W5        29.75R WCI  32
HAILEY         PTCLDY    43  34  70 CALM      29.67R
STANLEY          N/A     33  32  96 N8        29.70R WCI  26
SALMON         CLOUDY    37  36  93 NE8       29.68R WCI  31
CHALLIS        MOCLDY    44  28  53 W7        29.63R
$$

IDZ002-004-006-007-026-270500-
NORTHERN IDAHO


CITY           SKY/WX    TMP DP  RH WIND       PRES   REMARKS
LEWISTON       LGT RAIN  47  38  71 W12G24    29.79R
LOWELL           N/A     44  42  93 CALM      29.84R
COEUR D`ALENE  TSTM      44  40  85 CALM      29.71R
MULLAN PASS    SNOW      29  29 100 SW5       29.67S VSB 1/2 WCI  24
$$




USA.gov is the U.S. government's official web portal to all federal, state and local government web resources and services.